Location: San Antonio
(29.4240°N, 98.4930°W)
Time: 08:13:04
(UTC-05:00)

Envisat - Pass Details

Date: 18 June 2024
Orbit: 762 x 764 km, 98.3° (Epoch: 12 July)

Event Time Altitude Azimuth Distance (km) Brightness Sun altitude
Rises 03:36:54 0° 35° (NE) 3,225 7.4 -29.6°
Reaches altitude 10° 03:40:03 10° 55° (NE) 2,295 6.3 -29.2°
Maximum altitude 03:43:13 17° 95° (E) 1,868 5.3 -28.9°
Enters shadow 03:45:10 14° 121° (ESE) 2,034 5.2 -28.6°
